Wind_Speed
13 13 12 11 10 8 6 8 10 12 14 16 17 18 18 19 19 19 17 16 15 15 15 15 16 15 16 15 18 17 16 16 8 9 8 8 10 9 11 13 13 16 9 14 7 9 10 17 37 29 27 29 22 16
13 8 4 2 3 7 10 12 14 15 17 18 18 18 17 16 15 14 13 12 13 13 13 12 11 9 7 13 19 21 21 15 8 8 8 7 10 14 16 15 19 12 13 11 14 23 40 32 30 23 26 32 16 10
10 6 3 5 8 11 13 16 18 20 20 20 19 18 16 14 13 12 12 13 15 17 17 16 11 11 13 14 17 18 16 14 14 13 17 16 17 19 16 18 17 18 19 27 33 32 36 29 26 35 26 24 15 12
8 4 2 5 8 9 9 11 14 16 17 17 15 12 11 11 11 11 13 12 12 15 18 16 14 15 16 17 18 16 15 16 19 19 19 22 22 17 22 25 29 29 32 31 33 30 33 16 26 21 18 17 17 17
20 17 14 10 8 8 8 10 13 15 15 12 9 8 7 7 7 5 7 8 9 9 15 13 14 14 16 21 20 16 14 18 21 23 22 22 24 26 32 32 37 28 24 24 29 26 33 22 22 22 20 22 23 21
28 27 25 22 17 11 11 12 5 10 10 6 5 4 7 4 2 4 3 6 8 10 14 16 8 8 9 8 10 12 14 16 17 19 24 28 29 27 20 26 26 14 13 22 27 27 19 17 20 21 20 22 22 20
26 25 24 23 21 18 18 21 26 22 15 10 9 7 7 3 2 2 2 6 8 12 14 9 4 4 1 8 11 17 22 23 18 22 27 26 21 19 29 32 16 20 18 21 18 23 22 15 21 22 22 23 22 23
22 21 21 22 23 24 25 25 24 21 17 14 11 7 4 2 3 1 3 7 10 12 10 5 5 6 7 12 13 12 14 16 20 23 27 26 27 19 21 10 15 15 19 21 18 11 12 17 21 22 20 22 17 15
21 19 20 22 23 24 25 24 21 18 13 9 6 4 4 4 3 2 5 8 9 9 7 6 10 10 18 16 15 10 11 17 18 20 23 14 15 14 8 17 25 26 12 9 6 10 13 17 19 18 18 20 15 16
20 20 21 20 21 22 23 22 20 18 16 13 11 8 5 2 2 5 7 7 6 3 4 17 20 22 22 20 12 8 2 7 5 9 8 12 20 12 13 11 13 14 15 14 12 13 15 14 15 16 18 19 20 20
14 14 14 16 16 17 17 16 14 12 10 8 6 5 4 3 4 4 4 4 4 4 6 16 20 24 22 17 13 4 3 3 3 3 5 3 2 3 4 7 9 10 11 13 14 15 15 15 15 16 17 19 20 20
8 9 9 9 10 11 10 10 9 9 7 4 2 1 1 1 2 2 3 4 3 3 11 17 19 19 15 11 6 4 4 3 3 4 3 3 3 4 7 8 9 9 9 10 11 12 13 14 15 16 17 18 19 21
6 6 6 6 7 7 7 7 7 7 7 7 3 3 3 3 4 2 1 3 5 11 15 19 19 15 7 5 6 5 3 5 6 4 3 7 7 6 8 11 12 13 14 13 13 14 15 16 19 21 21 20 20 20
3 3 4 5 5 6 6 5 6 7 9 8 5 4 4 4 4 2 6 9 11 13 15 15 14 11 11 7 6 4 5 5 4 4 5 4 4 4 10 12 15 16 17 16 16 17 18 18 18 18 20 21 20 20
3 4 5 5 6 6 7 8 8 8 9 9 6 4 5 6 4 7 11 13 13 12 12 13 13 10 7 7 5 5 4 4 5 5 8 7 5 9 11 13 15 16 17 18 20 20 20 21 20 20 21 22 22 21
5 6 6 7 7 8 9 10 11 11 12 9 7 6 6 8 9 12 15 14 12 12 12 12 7 5 6 5 5 6 5 5 8 12 11 9 13 13 15 16 16 17 19 20 22 24 24 25 24 23 23 24 25 24
6 7 8 9 10 10 12 13 13 15 7 6 5 9 12 14 11 11 14 14 15 15 15 10 5 6 5 7 7 7 6 9 17 23 15 16 20 22 20 20 20 20 21 22 22 23 24 24 25 25 24 23 23 24
8 8 8 9 9 10 13 15 16 11 10 11 10 11 13 15 15 14 14 13 14 13 13 11 11 14 12 12 15 18 24 26 26 27 27 29 30 26 24 23 22 22 22 21 20 20 21 22 23 25 26 25 24 24
10 9 9 10 10 12 14 17 11 9 12 14 8 9 13 15 15 14 13 16 17 15 17 19 10 13 16 18 23 24 25 25 28 30 31 30 29 28 25 24 23 22 22 21 20 20 19 20 22 24 26 28 29 28
11 11 11 11 12 13 12 9 15 13 8 10 11 12 12 12 15 18 17 16 17 18 19 23 25 25 23 22 26 31 31 32 27 27 29 31 30 31 31 28 25 25 25 25 26 26 25 27 29 30 31 32 32 31
12 12 13 13 14 14 13 14 13 11 10 9 8 14 18 19 19 19 19 21 23 21 24 25 25 30 28 32 34 33 27 28 27 25 24 26 25 25 26 28 29 30 30 31 31 31 33 34 34 34 35 36 36 34
13 13 14 15 15 18 19 15 12 12 13 16 14 16 21 21 19 19 18 17 19 22 24 27 29 30 28 25 24 25 25 24 24 25 29 33 34 32 30 30 30 30 30 32 32 33 35 37 38 39 40 40 39 36
12 13 14 14 14 9 8 10 13 12 12 16 20 23 25 26 25 20 15 15 17 19 22 22 23 24 24 26 27 28 29 33 35 34 33 31 31 31 30 29 29 30 30 29 31 32 33 34 36 38 37 38 39 36
12 12 12 7 7 7 11 12 13 14 17 17 21 25 29 24 20 19 23 23 22 22 22 22 23 25 26 27 28 34 33 27 24 25 25 24 24 25 27 27 27 28 30 29 29 28 28 28 30 31 32 33 34 35
10 9 6 9 9 8 11 13 13 14 18 20 24 26 16 16 19 23 26 23 20 19 19 18 20 23 22 31 35 32 31 28 26 25 27 28 30 31 31 33 34 35 37 38 38 37 36 34 32 31 30 31 32 31
9 8 8 8 8 10 11 11 13 17 21 24 21 19 20 21 18 12 19 16 15 16 15 22 31 28 31 32 31 29 28 27 28 28 29 32 35 37 36 35 35 37 41 43 44 42 40 39 37 36 32 30 29 30
14 13 14 17 18 18 18 20 20 22 25 25 22 19 14 7 8 9 13 14 19 31 36 33 33 31 27 26 28 26 24 24 26 28 31 32 34 35 37 38 41 41 40 38 36 35 36 35 34 32 29 26 24 24
19 23 21 18 18 19 20 21 23 24 19 17 18 18 13 13 22 28 33 36 36 31 26 25 24 24 23 21 21 22 24 27 29 31 31 32 34 35 37 37 38 36 33 31 31 30 30 30 27 24 22 21 19 18
18 17 16 18 18 20 21 21 23 24 23 24 26 27 32 33 35 36 36 31 25 23 23 23 21 19 19 21 23 26 30 31 29 30 34 37 37 34 34 33 31 28 27 26 24 24 24 23 21 20 19 19 18 15
19 18 20 20 19 20 21 21 23 23 24 26 28 31 33 35 37 34 30 27 24 23 22 20 18 19 22 23 23 23 25 29 35 40 42 39 35 33 31 28 24 22 22 23 21 18 17 17 17 19 21 21 17 10
16 16 17 17 19 19 20 20 21 22 24 26 29 31 33 34 30 26 25 24 23 20 19 18 20 23 24 25 26 28 30 34 39 39 37 35 33 29 26 23 20 19 18 17 17 15 13 14 14 13 12 10 8 4
13 14 16 18 19 18 19 19 21 23 25 27 29 29 24 23 25 26 23 23 21 19 18 19 22 23 24 26 30 34 39 40 40 36 33 29 25 25 22 19 17 16 15 14 13 12 13 12 10 6 4 5 4 3
15 16 16 17 17 17 18 20 23 26 27 29 22 20 20 25 25 23 24 21 18 17 18 19 22 24 26 30 33 37 38 37 34 31 29 26 26 24 21 17 15 14 13 11 10 10 9 8 7 4 3 3 3 2
Wind_Direction
161 171 178 188 199 202 220 236 244 250 253 256 260 262 262 260 259 259 259 260 261 261 263 264 259 260 263 261 268 272 283 291 275 238 237 238 242 255 263 273 283 284 280 282 276 289 278 320 316 334 333 352 6 16
103 107 115 155 232 241 249 256 260 260 260 259 261 261 258 258 261 263 263 265 264 261 259 261 255 253 247 255 272 276 274 277 256 231 233 244 252 267 278 281 296 255 254 270 279 271 297 309 315 319 340 342 359 353
119 130 186 237 254 259 264 268 269 269 270 272 270 268 263 260 259 257 258 257 255 259 266 272 282 275 267 264 255 261 283 274 270 268 262 267 269 279 275 277 273 284 289 277 296 301 308 320 347 346 345 340 335 316
90 70 356 287 282 287 292 293 287 276 270 266 263 256 251 245 243 251 251 261 273 282 286 287 267 265 261 247 256 274 272 266 275 274 267 269 271 278 276 278 281 285 292 299 298 301 321 343 347 342 346 336 307 282
73 67 56 40 24 0 332 303 284 263 243 234 224 225 210 206 221 249 256 272 280 289 296 295 283 276 261 260 265 253 265 282 278 270 268 261 267 280 288 293 283 290 294 289 293 310 316 346 341 344 341 344 344 334
82 77 71 67 59 48 45 24 332 240 167 120 152 211 190 160 248 253 266 293 306 312 323 328 304 272 265 281 236 268 267 277 279 279 278 272 283 285 279 281 296 315 301 291 295 321 348 336 338 344 338 332 332 325
83 78 74 74 72 65 59 65 76 95 115 118 127 122 123 120 126 164 298 321 317 321 329 335 108 145 245 273 251 252 268 277 273 269 283 280 295 288 278 280 323 300 289 290 311 329 327 334 338 340 335 335 322 323
83 77 74 73 72 72 69 71 81 93 101 114 130 151 133 81 140 207 290 302 315 326 334 332 317 306 307 281 283 278 274 263 266 278 281 286 289 269 266 319 302 301 301 304 307 319 314 326 330 328 330 331 332 334
81 76 71 67 66 69 72 76 80 85 83 82 89 132 127 131 135 327 335 320 314 319 311 344 331 319 338 332 325 313 265 271 271 268 270 274 261 244 269 287 300 319 356 8 345 322 321 324 327 332 333 334 336 346
81 75 73 74 75 75 76 78 77 77 77 74 68 70 75 74 330 330 321 334 344 8 350 10 8 348 349 351 335 344 298 232 259 282 265 250 267 299 280 296 303 302 308 318 317 311 309 319 335 344 347 343 343 342
77 72 70 67 66 68 71 74 77 81 82 79 78 76 59 21 344 339 336 338 326 333 347 356 356 353 350 340 331 324 288 262 265 288 213 252 314 9 333 327 317 316 319 319 321 325 332 335 336 343 345 345 344 339
76 73 66 56 51 50 51 53 56 55 48 33 35 98 203 244 295 300 306 305 308 314 330 336 335 336 344 338 320 318 291 266 259 309 256 234 228 300 341 342 344 344 343 342 342 342 339 336 336 339 341 342 344 346
65 62 52 36 28 27 21 21 20 14 5 351 319 259 248 238 235 227 255 297 304 308 320 324 330 329 330 325 290 275 270 251 277 242 236 209 229 295 312 336 341 338 334 332 332 332 330 327 325 325 328 329 332 335
50 30 10 356 346 344 348 348 343 338 339 338 304 244 241 223 219 244 292 307 314 313 316 318 325 315 303 276 262 260 256 265 247 236 223 218 238 342 343 333 325 325 322 322 326 325 322 321 322 324 324 325 325 329
325 322 318 313 311 313 316 317 316 315 312 308 280 248 237 221 229 280 297 304 311 314 317 317 314 312 292 254 249 264 251 249 238 242 222 226 274 316 303 298 296 297 300 303 308 310 314 315 318 319 318 316 316 318
302 304 302 303 301 301 301 301 302 305 304 277 241 248 253 249 262 287 295 305 307 313 320 320 301 270 252 247 246 245 247 240 278 282 262 279 316 311 302 300 303 303 301 303 307 309 312 313 313 311 312 311 312 311
298 297 301 298 296 300 304 306 306 304 264 245 262 255 261 272 278 283 294 298 301 304 298 298 255 245 255 248 242 253 267 297 301 314 292 294 308 311 296 292 293 295 296 297 301 304 308 311 314 315 315 312 311 311
297 300 305 305 305 305 306 308 304 287 275 290 275 262 264 267 271 279 280 275 288 293 296 288 273 262 258 266 273 287 292 293 297 299 297 297 301 301 293 289 289 288 291 295 298 304 309 312 314 317 318 319 318 315
291 293 297 298 296 299 306 308 300 281 288 291 269 259 264 270 273 273 267 275 281 282 272 282 276 264 267 268 279 286 287 293 293 295 297 299 298 295 284 281 280 282 285 288 290 294 300 306 314 319 322 323 317 312
279 282 284 285 292 297 302 279 296 290 286 287 289 281 280 282 279 280 276 270 272 274 268 266 271 270 267 271 285 287 289 297 296 290 282 286 282 279 276 273 273 274 278 281 285 289 292 296 302 306 309 312 315 318
274 277 281 285 288 285 284 286 284 289 296 296 297 301 299 305 297 289 282 276 275 269 262 266 263 276 287 292 292 295 295 299 300 293 285 280 283 287 285 282 281 280 279 279 282 286 289 293 295 300 305 305 305 305
265 270 278 284 282 283 287 276 267 279 288 300 304 310 316 322 321 309 294 277 269 269 271 276 281 284 288 285 285 291 292 290 288 290 298 306 308 307 306 303 300 296 293 293 292 290 289 290 291 294 294 294 294 295
260 270 277 283 280 273 271 267 266 278 283 298 312 318 320 322 316 312 290 288 289 289 293 295 289 281 281 286 291 296 303 311 315 313 311 311 311 312 312 310 306 302 298 294 293 292 291 289 288 288 288 288 289 290
254 265 279 268 247 253 272 271 280 286 295 302 306 310 316 313 310 297 290 298 299 297 298 294 288 283 289 295 301 312 319 316 311 309 307 306 306 305 303 301 299 299 298 298 297 297 298 298 297 296 294 291 288 287
239 259 251 256 259 261 271 281 286 288 298 306 307 315 301 303 298 297 295 301 303 302 300 299 298 299 298 305 311 314 310 308 306 306 306 306 307 306 305 302 299 297 295 294 293 292 293 292 292 293 294 294 292 287
237 240 235 245 250 274 280 276 289 300 305 308 307 309 303 303 295 277 293 310 306 304 306 306 311 303 301 302 303 308 302 300 299 303 308 310 310 309 309 308 304 301 299 296 293 290 289 289 289 289 290 290 288 286
237 245 256 268 277 284 287 290 293 297 301 306 305 304 306 274 268 281 301 297 301 302 304 304 302 301 301 302 302 303 305 307 311 313 311 310 310 312 313 314 313 312 310 306 300 297 293 290 288 288 287 285 284 283
251 256 262 272 281 290 288 293 295 300 304 305 299 299 288 282 291 300 302 306 309 310 307 306 306 307 308 309 309 312 313 314 316 314 314 314 313 311 310 308 308 310 311 309 306 302 298 297 297 296 293 289 286 282
260 271 271 271 278 285 293 297 299 303 306 303 302 301 301 307 309 311 313 313 312 313 310 308 311 315 319 320 321 323 320 317 318 318 316 314 311 310 307 305 306 304 305 308 308 306 304 305 306 304 302 300 298 288
262 264 270 279 282 291 299 300 302 305 306 306 307 309 312 314 314 314 315 314 313 313 314 310 309 316 317 315 316 315 315 324 327 324 323 321 319 317 315 315 314 306 308 310 312 311 305 304 305 304 304 307 307 297
271 273 275 282 291 299 299 301 304 307 309 311 311 311 313 313 316 320 321 318 314 311 311 312 312 315 316 314 311 308 310 317 321 324 323 323 323 322 324 323 319 316 317 318 318 318 318 319 316 314 314 315 319 319
273 276 282 289 297 300 302 304 305 309 313 313 314 315 320 322 326 330 326 320 316 312 310 310 308 312 312 312 314 318 321 326 328 328 327 329 329 329 330 330 329 326 327 326 323 324 325 329 334 340 5 28 60 93
280 285 292 295 300 303 306 309 313 316 318 317 320 320 326 329 333 331 326 322 315 310 310 310 313 316 319 319 319 323 327 328 329 329 330 332 334 334 336 339 340 339 337 334 333 338 342 346 351 356 355 354 6 14
Height
2935 2941 2945 2947 2949 2952 2956 2960 2959 2960 2963 2966 2967 2967 2969 2971 2972 2974 2974 2976 2981 2981 2982 2982 2984 2987 2987 2988 2988 2987 2989 2987 2986 2989 2990 2989 2988 2987 2984 2982 2981 2981 2980 2976 2972 2969 2958 2952 2946 2947 2942 2931 2927 2924
2936 2941 2945 2946 2949 2952 2955 2957 2956 2956 2958 2959 2960 2962 2965 2966 2967 2968 2972 2973 2976 2978 2977 2977 2979 2980 2982 2983 2985 2981 2983 2983 2983 2984 2985 2984 2983 2981 2979 2977 2975 2976 2974 2971 2970 2960 2953 2950 2945 2939 2934 2932 2928 2926
2938 2941 2945 2946 2949 2950 2951 2951 2953 2953 2954 2955 2956 2958 2960 2962 2963 2965 2967 2968 2970 2972 2973 2973 2973 2974 2976 2977 2977 2976 2978 2979 2980 2980 2979 2979 2977 2976 2974 2971 2969 2968 2968 2964 2961 2951 2946 2940 2936 2934 2932 2929 2927 2925
2939 2943 2944 2946 2947 2947 2947 2947 2947 2948 2948 2948 2951 2952 2956 2959 2960 2961 2964 2965 2968 2969 2968 2971 2969 2969 2970 2969 2969 2972 2973 2973 2974 2974 2973 2972 2972 2970 2966 2966 2963 2964 2962 2957 2949 2945 2940 2937 2936 2933 2930 2927 2924 2923
2941 2942 2943 2942 2942 2943 2942 2941 2941 2941 2942 2945 2949 2951 2954 2957 2957 2960 2963 2964 2966 2968 2965 2966 2965 2964 2964 2965 2965 2966 2967 2968 2968 2968 2966 2966 2965 2965 2960 2957 2949 2954 2953 2951 2944 2941 2939 2934 2931 2928 2925 2921 2919 2915
2944 2943 2944 2944 2943 2943 2941 2940 2937 2937 2942 2947 2949 2952 2954 2957 2958 2961 2963 2964 2964 2964 2963 2961 2961 2960 2962 2962 2962 2963 2964 2963 2963 2961 2960 2959 2960 2961 2955 2947 2945 2948 2948 2945 2939 2936 2935 2932 2930 2926 2923 2920 2917 2914
2948 2948 2948 2946 2945 2945 2943 2941 2938 2940 2945 2949 2952 2954 2956 2957 2959 2962 2965 2965 2963 2962 2961 2959 2959 2960 2959 2960 2959 2959 2959 2958 2958 2957 2954 2954 2955 2955 2949 2943 2944 2943 2941 2938 2937 2935 2933 2931 2927 2924 2921 2917 2914 2910
2953 2952 2952 2951 2950 2949 2948 2947 2946 2948 2950 2952 2955 2957 2958 2960 2961 2963 2963 2962 2962 2961 2960 2959 2959 2958 2958 2956 2955 2954 2953 2953 2952 2952 2949 2949 2950 2949 2943 2941 2940 2937 2935 2934 2933 2931 2930 2928 2925 2921 2918 2914 2910 2907
2957 2957 2957 2956 2956 2954 2954 2953 2953 2954 2956 2957 2958 2959 2960 2961 2962 2963 2963 2962 2961 2963 2960 2959 2958 2957 2954 2952 2950 2949 2948 2948 2947 2944 2945 2947 2944 2941 2939 2938 2935 2934 2931 2930 2930 2929 2927 2925 2922 2918 2915 2911 2907 2903
2962 2962 2961 2960 2960 2959 2958 2958 2958 2959 2960 2961 2962 2962 2963 2963 2963 2963 2963 2961 2961 2961 2960 2959 2958 2955 2953 2949 2947 2946 2945 2945 2943 2942 2941 2940 2937 2936 2935 2934 2932 2931 2931 2929 2927 2926 2924 2922 2918 2915 2911 2908 2903 2900
2966 2966 2966 2965 2965 2964 2963 2963 2963 2963 2964 2964 2963 2963 2964 2963 2964 2963 2962 2962 2961 2961 2959 2958 2956 2953 2951 2949 2947 2946 2945 2944 2942 2942 2940 2938 2937 2936 2934 2933 2931 2930 2928 2926 2924 2922 2919 2917 2915 2912 2909 2906 2902 2898
2969 2968 2968 2968 2968 2967 2967 2966 2966 2965 2965 2965 2964 2964 2963 2964 2963 2964 2963 2963 2962 2961 2960 2957 2956 2953 2950 2948 2946 2945 2944 2943 2941 2940 2939 2936 2936 2934 2933 2932 2930 2928 2926 2924 2922 2919 2917 2915 2912 2909 2906 2903 2900 2896
2970 2970 2970 2969 2969 2969 2968 2968 2967 2966 2965 2964 2964 2963 2963 2964 2962 2961 2961 2961 2961 2960 2958 2955 2953 2951 2949 2948 2946 2945 2942 2941 2940 2938 2936 2934 2933 2933 2932 2930 2928 2926 2924 2922 2919 2917 2914 2912 2909 2906 2903 2901 2897 2894
2971 2970 2970 2970 2969 2969 2968 2967 2966 2965 2964 2963 2962 2961 2961 2960 2960 2960 2960 2959 2959 2957 2955 2953 2951 2950 2948 2947 2945 2942 2941 2939 2936 2934 2933 2932 2931 2931 2929 2928 2926 2923 2921 2919 2916 2913 2910 2908 2905 2902 2899 2896 2894 2891
2971 2970 2970 2969 2969 2968 2967 2966 2965 2964 2963 2961 2960 2958 2957 2957 2957 2957 2957 2956 2955 2954 2952 2950 2949 2947 2945 2944 2941 2940 2937 2934 2932 2930 2930 2929 2928 2927 2926 2924 2922 2919 2917 2914 2911 2909 2906 2904 2902 2899 2895 2893 2890 2887
2969 2969 2968 2967 2966 2965 2965 2963 2962 2961 2959 2958 2956 2955 2955 2955 2955 2954 2953 2952 2951 2950 2948 2947 2945 2943 2942 2940 2938 2935 2934 2930 2929 2928 2927 2925 2923 2922 2921 2919 2916 2914 2911 2908 2906 2903 2901 2898 2896 2893 2891 2888 2885 2882
2967 2966 2966 2965 2964 2963 2962 2960 2959 2957 2955 2953 2953 2952 2952 2952 2952 2950 2949 2948 2948 2947 2945 2944 2943 2940 2938 2935 2934 2932 2929 2928 2926 2924 2922 2920 2919 2917 2915 2913 2910 2908 2905 2902 2899 2897 2894 2892 2889 2887 2885 2882 2879 2876
2965 2964 2963 2962 2961 2960 2959 2957 2956 2954 2950 2950 2949 2948 2947 2947 2947 2947 2946 2944 2944 2942 2941 2940 2938 2936 2935 2931 2931 2929 2926 2923 2921 2919 2917 2914 2911 2909 2907 2905 2903 2901 2898 2896 2893 2891 2888 2886 2883 2880 2878 2875 2873 2870
2962 2961 2961 2959 2958 2957 2956 2953 2952 2949 2947 2946 2945 2944 2944 2943 2943 2942 2941 2940 2938 2937 2937 2934 2933 2929 2928 2926 2924 2922 2920 2917 2915 2912 2909 2906 2904 2901 2899 2897 2895 2893 2891 2889 2887 2885 2882 2880 2877 2874 2872 2869 2866 2864
2958 2958 2957 2956 2955 2954 2953 2951 2949 2946 2944 2944 2943 2941 2940 2940 2939 2937 2936 2934 2933 2931 2930 2927 2924 2922 2921 2919 2918 2915 2912 2909 2908 2905 2899 2897 2895 2893 2891 2888 2886 2885 2883 2882 2880 2877 2875 2873 2871 2868 2865 2862 2859 2857
2955 2954 2954 2953 2952 2951 2951 2947 2945 2943 2941 2940 2940 2938 2936 2935 2933 2930 2929 2927 2925 2924 2922 2921 2919 2917 2915 2913 2910 2907 2904 2902 2899 2897 2894 2891 2889 2886 2883 2881 2879 2876 2874 2871 2869 2867 2865 2863 2861 2858 2856 2853 2851 2848
2951 2950 2950 2949 2949 2946 2944 2943 2942 2940 2939 2938 2936 2934 2931 2928 2926 2924 2921 2919 2918 2918 2917 2915 2913 2910 2908 2905 2903 2900 2898 2895 2892 2889 2887 2883 2880 2878 2875 2872 2869 2867 2864 2861 2859 2856 2855 2852 2849 2846 2844 2842 2840 2838
2947 2947 2946 2946 2945 2942 2941 2938 2938 2938 2936 2934 2931 2929 2926 2923 2920 2918 2915 2912 2912 2911 2909 2907 2905 2903 2901 2899 2896 2893 2890 2887 2884 2881 2878 2874 2870 2867 2864 2861 2858 2855 2853 2851 2848 2845 2842 2839 2836 2834 2832 2829 2827 2825
2942 2943 2942 2941 2939 2938 2936 2935 2935 2934 2933 2931 2928 2925 2922 2918 2915 2912 2909 2908 2907 2905 2903 2902 2900 2898 2895 2892 2889 2886 2883 2879 2876 2872 2869 2866 2863 2861 2857 2854 2851 2847 2843 2840 2837 2835 2832 2829 2826 2823 2820 2817 2815 2813
2941 2941 2939 2936 2935 2934 2932 2931 2930 2930 2928 2926 2924 2920 2917 2914 2911 2907 2903 2902 2901 2900 2898 2897 2895 2892 2889 2885 2882 2878 2874 2872 2868 2865 2862 2858 2854 2851 2848 2845 2841 2837 2832 2829 2826 2823 2821 2818 2816 2813 2810 2807 2804 2801
2935 2934 2934 2931 2931 2931 2929 2928 2926 2925 2923 2921 2918 2914 2911 2909 2905 2901 2898 2898 2897 2895 2893 2891 2888 2885 2881 2877 2874 2870 2867 2863 2860 2857 2853 2848 2844 2839 2835 2832 2828 2825 2818 2813 2809 2807 2806 2803 2801 2800 2798 2796 2793 2790
2928 2928 2928 2927 2927 2927 2925 2923 2922 2920 2917 2915 2911 2908 2907 2904 2899 2897 2895 2893 2892 2889 2886 2882 2878 2874 2871 2868 2865 2861 2858 2855 2852 2849 2845 2840 2835 2830 2825 2820 2815 2811 2805 2799 2796 2793 2789 2787 2786 2785 2785 2784 2782 2780
2921 2920 2922 2923 2922 2922 2920 2918 2916 2914 2911 2909 2906 2904 2902 2899 2896 2893 2890 2886 2883 2878 2875 2872 2869 2866 2863 2860 2857 2854 2851 2848 2844 2840 2836 2832 2827 2821 2816 2810 2805 2800 2795 2790 2786 2782 2779 2776 2775 2774 2773 2773 2772 2771
2914 2915 2916 2916 2916 2915 2914 2912 2910 2908 2906 2903 2900 2897 2893 2890 2887 2884 2880 2877 2874 2871 2867 2864 2861 2859 2856 2853 2850 2846 2842 2839 2836 2832 2828 2823 2819 2814 2807 2801 2796 2791 2787 2783 2780 2776 2772 2770 2768 2766 2765 2764 2764 2763
2909 2911 2910 2910 2910 2910 2909 2907 2904 2901 2899 2896 2893 2889 2886 2882 2879 2875 2872 2869 2866 2863 2860 2857 2855 2853 2851 2848 2846 2843 2837 2832 2827 2821 2815 2811 2805 2800 2795 2790 2786 2783 2779 2776 2773 2771 2768 2766 2764 2762 2760 2758 2757 2756
2905 2905 2905 2905 2904 2904 2902 2900 2898 2895 2892 2889 2886 2882 2879 2875 2871 2869 2866 2861 2858 2856 2854 2851 2849 2847 2845 2841 2838 2834 2832 2827 2821 2814 2807 2801 2796 2790 2786 2783 2779 2776 2773 2770 2768 2766 2764 2762 2760 2758 2757 2755 2754 2754
2900 2901 2901 2900 2899 2898 2896 2894 2892 2889 2886 2883 2879 2875 2872 2868 2865 2862 2859 2854 2851 2849 2848 2846 2844 2842 2839 2835 2831 2826 2821 2816 2810 2804 2799 2794 2790 2785 2781 2778 2774 2771 2769 2767 2765 2763 2761 2759 2758 2757 2756 2755 2754 2754
2895 2895 2895 2894 2893 2891 2890 2888 2885 2883 2879 2875 2871 2869 2866 2863 2859 2856 2852 2848 2846 2844 2842 2841 2839 2836 2833 2829 2825 2820 2814 2808 2803 2797 2792 2788 2783 2780 2777 2774 2771 2768 2766 2765 2763 2762 2760 2759 2757 2757 2756 2756 2756 2756